Tracking 22458 objects as of 2-Mar-2021
HD Live streaming from Space Station
objects crossing your sky now

COSMOS 249 DEB

Track COSMOS 249 DEB now!
10-day predictions


NORAD ID: 3509
Int'l Code: 1968-091F
Perigee: 443.9 km
Apogee: 957.1 km
Inclination: 62.4 °
Period: 98.6 minutes
Semi major axis: 7071 km
RCS: 0.036 m2 (small)
Launch date: October 20, 1968
Source: Commonwealth of Independent States (former USSR) (CIS)
Launch site: TYURATAM MISSILE AND SPACE COMPLEX (TTMTR)

Note: This is SATELLITE DEBRIS
aabbcc
Your satellite tracking list
Your tracking list is empty




NASA's NSSDC Master Catalog

Two Line Element Set (TLE):
1 03509U 68091F   21060.90610781  .00004096  00000-0  34938-3 0  9991
2 03509  62.3639  24.8049 0362894  32.2541 330.0170 14.59949098620363
Source of the keplerian elements: AFSPC